Regional Weather Roundup
Issued by NWS

Home | Current Version | Previous Version | Text Only | Print | Product List | Glossary On
Versions: 1 2 3 4 5 6 7 8 9 10 11 12 13 14 15 16 17 18 19 20 21 22 23 24 25 26 27 28 29 30 31 32 33 34 35 36 37 38 39 40 41 42 43 44 45 46 47 48 49 50
000
ASUS42 KFFC 050003
RWRGA
WEATHER ROUNDUP FOR GEORGIA
NATIONAL WEATHER SERVICE PEACHTREE CITY GA
800 PM EDT FRI SEP 04 2015

NOTE: "FAIR" INDICATES FEW OR NO CLOUDS BELOW 12,000 FEET WITH NO
SIGNIFICANT WEATHER AND/OR OBSTRUCTIONS TO VISIBILITY.

* = USE WITH CAUTION. THE STATIONS MARKED WITH AN ASTERISK MAY NOT
REPORT WEATHER SUCH AS PRECIPITATION, FOG, OR THUNDER AND ARE NOT
QUALITY CONTROLLED BY NWS.

THE REMARK "TC" DENOTES TEMPERATURE READING IN DEGREES CELSIUS.

GAZ001>058-050100-
NORTH GEORGIA

CITY           SKY/WX    TMP DP  RH WIND       PRES   REMARKS
ATLANTA        FAIR      82  66  58 CALM      30.00R
6HR MIN TEMP:  80; 6HR MAX TEMP:  92; 6HR PCP: TRACE;

ATHENS         FAIR      82  71  69 CALM      29.98S
6HR MIN TEMP:  82; 6HR MAX TEMP:  94;

CHAMBLEE       MOCLDY    80  68  66 E5        30.00R
6HR MIN TEMP:  80; 6HR MAX TEMP:  94;

PEACHTREE CITY FAIR      84  70  62 CALM      29.99S
6HR MIN TEMP:  84; 6HR MAX TEMP:  92;

ROME           FAIR      86  68  54 N5        29.96S
6HR MIN TEMP:  86; 6HR MAX TEMP:  94;

WEST ATLANTA   FAIR      76  72  87 NE8       29.99S
6HR MIN TEMP:  74; 6HR MAX TEMP:  92; 6HR PCP:  0.30;

GAINESVILLE    FAIR      81  70  69 W5        30.04R
6HR MIN TEMP:  81; 6HR MAX TEMP:  91;

CARTERSVILLE   FAIR      79  73  82 CALM      29.98S
6HR MIN TEMP:  77; 6HR MAX TEMP:  94; 6HR PCP:  0.05;



CITY           SKY/WX    TMP DP  RH WIND       PRES   REMARKS
DALTON*        FAIR      81  72  74 CALM      29.98S
LAWRENCEVILLE* PTCLDY    82  64  54 CALM      30.01R
KENNESAW*      PTCLDY    79  66  65 CALM      30.01F
BLAIRSVILLE*     N/A     78  48  35 CALM      30.07R
$$

GAZ059>098-102>109-050100-
CENTRAL GEORGIA

CITY           SKY/WX    TMP DP  RH WIND       PRES   REMARKS
AUGUSTA-BUSH   FAIR      80  72  76 CALM      29.95S
6HR MIN TEMP:  80; 6HR MAX TEMP:  96; 6HR PCP: TRACE;

AUGUSTA-DANIEL FAIR      83  70  64 CALM      29.97S
6HR MIN TEMP:  83; 6HR MAX TEMP:  96;

COLUMBUS       FAIR      89  68  49 NE3       29.94R HX  93
6HR MIN TEMP:  89; 6HR MAX TEMP:  95;

MACON          FAIR      80  68  66 CALM      29.96R
6HR MIN TEMP:  80; 6HR MAX TEMP:  95;

ROBINS AFB     FAIR      81  69  66 SE5       29.96R


CITY           SKY/WX    TMP DP  RH WIND       PRES   REMARKS
LAGRANGE*      FAIR      84  82  93 CALM      29.97S HX  99
MILLEDGEVILLE* FAIR      81  72  74 CALM      29.97S
$$

GAZ099>101-110>166-050100-
SOUTH GEORGIA

CITY           SKY/WX    TMP DP  RH WIND       PRES   REMARKS
SAVANNAH       MOCLDY    77  72  84 CALM      29.94F
6HR MIN TEMP:  76; 6HR MAX TEMP:  93; 6HR PCP:  0.02;

VALDOSTA       FAIR      83  79  88 CALM      29.94S HX  94
6HR MIN TEMP:  83; 6HR MAX TEMP:  94;

ALMA           FAIR      74  72  93 S6        29.97S
6HR MIN TEMP:  74; 6HR MAX TEMP:  94; 6HR PCP:  0.32;

ST SIMONS      FAIR      82  76  81 CALM      29.95S
6HR MIN TEMP:  82; 6HR MAX TEMP:  87; 6HR PCP: TRACE;

FT STEWART     CLOUDY    79  71  77 CALM      29.94S
ALBANY         FAIR      84  72  67 W3        29.96R
HUNTER AFB     FAIR      78  77  98 S1        29.92F
MOODY AFB      FAIR      86  73  64 SW5       29.94R HX  93
BRUNSWICK      FAIR      77  73  88 CALM      29.96F


CITY           SKY/WX    TMP DP  RH WIND       PRES   REMARKS
BAINBRIDGE*    FAIR      86  73  66 CALM      29.95R HAZE    HX  93
MOULTRIE*      FAIR      86  73  66 SW3       29.96R HX  93
VIDALIA*       FAIR      81  72  74 SE3       29.96S
WAYCROSS*      TSTM      77  76  97 SW6       29.97F
DOUGLAS*       FAIR      81  70  69 E10G17    29.99R
$$



USA.gov is the U.S. government's official web portal to all federal, state and local government web resources and services.